TimeCDT,TemperatureF,Dew PointF,Humidity,Sea Level PressureIn,VisibilityMPH,Wind Direction,Wind SpeedMPH,Gust SpeedMPH,PrecipitationIn,Events,Conditions,WindDirDegrees,DateUTC
12:52 AM,53.1,50.0,89,30.21,10.0,Calm,Calm,-,N/A,,Clear,0,2013-08-17 05:52:00
1:52 AM,51.1,48.9,92,30.21,10.0,Calm,Calm,-,N/A,,Clear,0,2013-08-17 06:52:00
2:52 AM,53.1,48.9,86,30.21,10.0,Calm,Calm,-,N/A,,Clear,0,2013-08-17 07:52:00
3:52 AM,51.1,48.0,89,30.21,10.0,Calm,Calm,-,N/A,,Clear,0,2013-08-17 08:52:00
4:52 AM,51.1,48.0,89,30.22,9.0,Calm,Calm,-,N/A,,Clear,0,2013-08-17 09:52:00
5:52 AM,50.0,48.0,93,30.22,9.0,Calm,Calm,-,N/A,,Clear,0,2013-08-17 10:52:00
6:52 AM,54.0,52.0,93,30.24,5.0,Calm,Calm,-,N/A,,Clear,0,2013-08-17 11:52:00
7:52 AM,62.1,57.9,86,30.25,4.0,NE,3.5,-,N/A,,Clear,40,2013-08-17 12:52:00
8:52 AM,70.0,61.0,73,30.25,8.0,ENE,4.6,-,N/A,,Clear,70,2013-08-17 13:52:00
9:52 AM,73.9,57.9,57,30.25,10.0,NNE,5.8,-,N/A,,Clear,30,2013-08-17 14:52:00
10:52 AM,77.0,53.1,43,30.24,10.0,East,6.9,-,N/A,,Scattered Clouds,100,2013-08-17 15:52:00
11:52 AM,80.1,52.0,38,30.23,10.0,East,9.2,-,N/A,,Mostly Cloudy,80,2013-08-17 16:52:00
12:52 PM,79.0,53.1,40,30.21,10.0,East,5.8,-,N/A,,Overcast,80,2013-08-17 17:52:00
1:52 PM,82.0,51.1,34,30.20,10.0,East,8.1,17.3,N/A,,Mostly Cloudy,100,2013-08-17 18:52:00
2:52 PM,82.9,51.1,33,30.18,10.0,Variable,4.6,-,N/A,,Partly Cloudy,0,2013-08-17 19:52:00
3:52 PM,82.0,51.1,34,30.18,10.0,East,9.2,-,N/A,,Scattered Clouds,100,2013-08-17 20:52:00
4:52 PM,81.0,51.1,35,30.17,10.0,ENE,10.4,-,N/A,,Clear,60,2013-08-17 21:52:00
5:52 PM,80.1,50.0,35,30.17,10.0,ENE,9.2,-,N/A,,Clear,60,2013-08-17 22:52:00
6:52 PM,75.0,52.0,44,30.17,10.0,ENE,6.9,-,N/A,,Clear,60,2013-08-17 23:52:00
7:52 PM,68.0,54.0,61,30.18,10.0,ENE,5.8,-,N/A,,Clear,60,2013-08-18 00:52:00
8:52 PM,66.0,54.0,65,30.18,10.0,ENE,4.6,-,N/A,,Clear,60,2013-08-18 01:52:00
9:52 PM,64.9,54.0,68,30.19,10.0,Calm,Calm,-,N/A,,Clear,0,2013-08-18 02:52:00
10:52 PM,59.0,54.0,83,30.19,10.0,Calm,Calm,-,N/A,,Clear,0,2013-08-18 03:52:00
11:52 PM,57.9,53.1,84,30.18,10.0,Calm,Calm,-,N/A,,Clear,0,2013-08-18 04:52:00